User: anonymous   Login
Location: Darlington Observatory
(36.4817°N, 105.8156°W)
Time: 20:38:44
(UTC-06:00)
Language:

Cosmos 2278 Rocket - Orbit

View from above orbital plane
View from above orbital plane
View from above satellite
View from above satellite

Ground track
Ground track

The orbit data is extracted from the following two-line orbital elements,

1 23088U 94023B   17267.83224808 -.00000143  00000-0 -49464-4 0  9998
2 23088  70.9997  72.9137 0005539 293.7600  66.2941 14.14663178209631
Epoch (UTC): 24 September 2017 19:58:26
Eccentricity: 0.0005539
inclination: 70.9997°
perigee height: 839 km
apogee height: 847 km
right ascension of ascending node: 72.9137°
argument of perigee: 293.7600°
revolutions per day: 14.14663178
mean anomaly at epoch: 66.2941°
orbit number at epoch: 20963

The dashed part of the orbit path shows where the satellite is in the earth's shadow,  

DLR